Flag for Germany Weather past 2 weeks in Hürth, North Rhine-Westphalia, Germany

Now
55 °F

Cool.


Feels Like: 55 °F
Forecast: 53 / 66 °F
Wind: 2 mph from Southwest

Location: Noervenich

Current Time: Apr 25, 2015 at 4:51:54 AM

Latest Report: Apr 25, 2015 at 4:20 AM


Visibility: N/A

Pressure: 29.80 "Hg

Humidity: 72%

Dew point: 46 °F

Location of HürthLocation

Historic Weather in Hürth — Graph

°F

Hürth temperature yesterday

Maximum temperature yesterday: 72 °F (at 4:20 PM)
Minimum temperature yesterday: 39 °F (at 5:20 AM)
Average temperature yesterday: 57 °F

Past Weeks' High & Low Weather Summary

 TemperatureHumidityPressure
High75 °F (Apr 15, 2:20 PM)100% (Apr 23, 6:01 AM)30.48 "Hg (Apr 23, 6:01 AM)
Low34 °F (Apr 19, 6:20 AM)23% (Apr 10, 6:20 PM)29.80 "Hg (Apr 25, 1:20 AM)
Average53 °F60%30.19 "Hg
* Reported Apr 10 3:20 AM — Apr 25 3:20 AM, Hürth, Weather by CustomWeather, © 2015

Note: Actual official high and low records may vary slightly from our data, if they occured in-between our weather recording intervals... More about our weather records

Advertising

Hürth weather history for previous 24 hours

 ConditionsComfort  
Time TempWeatherWind HumidityBarometerVisibility
3:20 AM
Sat, Apr 25
55 °FCool.No wind72%29.80 "HgN/A
2:20 AM57 °FCool.No wind63%29.80 "HgN/A
1:20 AM59 °FRefreshingly cool.3 mph59%29.80 "HgN/A
12:20 AM59 °FRefreshingly cool.3 mph59%29.83 "HgN/A
11:20 PM
Fri, Apr 24
59 °FRefreshingly cool.5 mph59%29.83 "HgN/A
10:20 PM59 °FRefreshingly cool.3 mph59%29.83 "HgN/A
9:20 PM61 °FRefreshingly cool.2 mph55%29.83 "HgN/A
8:20 PM66 °FMild.1 mph46%29.83 "HgN/A
7:20 PM70 °FPartly sunny.5 mph40%29.83 "HgN/A
6:20 PM70 °FPartly sunny.5 mph40%29.83 "HgN/A
5:20 PM72 °FScattered clouds.6 mph31%29.86 "HgN/A
4:20 PM72 °FScattered clouds.10 mph31%29.86 "HgN/A
3:20 PM70 °FScattered clouds.8 mph27%29.86 "HgN/A
2:20 PM68 °FScattered clouds.1 mph35%29.89 "HgN/A
1:20 PM66 °FMild.2 mph43%29.92 "HgN/A
12:20 PM64 °FMild.2 mph46%29.92 "HgN/A
11:20 AM63 °FMild.3 mph49%29.95 "HgN/A
10:20 AM59 °FPassing clouds.2 mph51%29.95 "HgN/A
9:20 AM55 °FRefreshingly cool.1 mph59%29.95 "HgN/A
8:20 AM50 °FCool.3 mph67%29.95 "HgN/A
7:20 AM39 °FChilly.No wind93%29.95 "Hg6 mi
6:20 AM39 °FChilly.1 mph87%29.95 "Hg5 mi
5:20 AM39 °FChilly.1 mph93%29.95 "Hg6 mi
4:20 AM41 °FQuite cool.No wind87%29.95 "HgN/A
Weather by CustomWeather, © 2015

See weather overviewHow to use our weather pages